Weather History for Robstown, TX

Change the Weather History Date:

Thursday, February 21, 2013

  Actual Average (KCRP) Record (KCRP)
Temperature  
Mean Temperature 74 °F 62 °F  
Max Temperature 83 °F 72 °F 92 °F (1997)
Min Temperature 66 °F 52 °F 33 °F (1978)
Degree Days  
Heating Degree Days 0 5  
Month to date heating degree days 140  
Since 1 July heating degree days 767  
Cooling Degree Days 10 2  
Month to date cooling degree days 35  
Year to date cooling degree days 65  
Growing Degree Days 24 (Base 50)    
Moisture  
Dew Point 60 °F    
Average Humidity 65    
Maximum Humidity 93    
Minimum Humidity 33    
Precipitation  
Precipitation 0.00 in 0.07 in 1.53 in (1938)
Month to date precipitation 1.40  
Year to date precipitation 2.94  
Snow  
Snow 0.00 in - - ()
Month to date snowfall  
Since 1 July snowfall  
Snow Depth -    
Sea Level Pressure  
Sea Level Pressure 29.70 in    
Wind  
Wind Speed 17 mph (East)    
Max Wind Speed 25 mph    
Max Gust Speed 33 mph    
Visibility 9 miles    
Events      
T = Trace of Precipitation, MM = Missing Value Source: NWS Daily Summary

Daily Weather History Graph

Daily Weather History Graph

Search for Another Location

Airport:

Trip Planner

Search our weather history database for the weather conditions in past years. The results will help you decide how hot, cold, wet, or windy it might be!

Date:

Astronomy

Feb. 21, 2013 Rise Set
Actual Time 7:02 AM CST 6:26 PM CST
Civil Twilight 6:38 AM CST 6:50 PM CST
Nautical Twilight 6:11 AM CST 7:17 PM CST
Astronomical Twilight 5:44 AM CST 7:44 PM CST
Moon 2:55 PM CST (2/21) 3:54 AM CST (2/21)
Length of Visible Light 12h 11m
Length of Day
11h 23m
Waxing Gibbous, 84% of the Moon is Illuminated
Feb 21
Waxing Gibbous
Feb 25
Full
Mar 4
Last Quarter
Mar 11
New
Mar 19
First Quarter

Hourly Weather History & Observations

Time (CST) Temp. Heat Index Dew Point Humidity Pressure Visibility Wind Dir Wind Speed Gust Speed Precip Events Conditions
12:15 AM 72.7 °F - 68.5 °F 87% 29.68 in 7.0 mi South 20.7 mph 32.2 mph N/A   Overcast
12:35 AM 72.7 °F - 68.2 °F 86% 29.68 in 10.0 mi SSE 24.2 mph 27.6 mph N/A   Overcast
12:55 AM 72.9 °F - 68.2 °F 85% 29.67 in 10.0 mi SSE 19.6 mph 31.1 mph N/A   Overcast
1:15 AM 72.7 °F - 68.2 °F 86% 29.66 in 10.0 mi SSE 21.9 mph 32.2 mph N/A   Overcast
1:35 AM 72.7 °F - 68.2 °F 86% 29.65 in 10.0 mi SSE 25.3 mph 33.4 mph N/A   Overcast
1:55 AM 72.5 °F - 68.2 °F 86% 29.64 in 7.0 mi SSE 24.2 mph 33.4 mph N/A   Overcast
2:15 AM 72.1 °F - 68.0 °F 87% 29.64 in 7.0 mi SSE 23.0 mph 29.9 mph N/A   Overcast
2:35 AM 72.1 °F - 68.0 °F 87% 29.63 in 7.0 mi SSE 23.0 mph 26.5 mph N/A   Overcast
2:55 AM 72.1 °F - 68.0 °F 87% 29.63 in 7.0 mi SSE 21.9 mph 27.6 mph N/A   Overcast
3:15 AM 72.1 °F - 68.0 °F 87% 29.62 in 7.0 mi SSE 20.7 mph 27.6 mph N/A   Overcast
3:35 AM 72.0 °F - 68.0 °F 87% 29.61 in 7.0 mi SSE 23.0 mph 29.9 mph N/A   Overcast
3:55 AM 71.8 °F - 68.0 °F 88% 29.60 in 7.0 mi SSE 23.0 mph 28.8 mph N/A   Overcast
4:15 AM 71.6 °F - 68.0 °F 88% 29.61 in 7.0 mi SSE 19.6 mph - N/A   Overcast
4:35 AM 71.2 °F - 68.0 °F 89% 29.59 in 7.0 mi SSE 20.7 mph 25.3 mph N/A   Overcast
5:15 AM 70.7 °F - 67.5 °F 89% 29.59 in 5.0 mi SSE 18.4 mph - N/A   Mostly Cloudy
5:35 AM 70.2 °F - 67.5 °F 91% 29.60 in 5.0 mi SSE 16.1 mph - N/A   Scattered Clouds
5:55 AM 69.8 °F - 67.3 °F 92% 29.60 in 5.0 mi SSE 16.1 mph 21.9 mph N/A   Clear
6:15 AM 69.4 °F - 67.1 °F 92% 29.61 in 5.0 mi South 12.7 mph - N/A   Scattered Clouds
6:35 AM 69.3 °F - 67.1 °F 93% 29.61 in 5.0 mi SSE 12.7 mph - N/A   Scattered Clouds
6:55 AM 68.9 °F - 66.6 °F 92% 29.62 in 5.0 mi SSE 10.4 mph - N/A   Clear
7:15 AM 68.9 °F - 66.6 °F 92% 29.63 in 4.0 mi SSE 11.5 mph - N/A   Clear
7:35 AM 68.9 °F - 66.6 °F 92% 29.64 in 4.0 mi SSE 9.2 mph - N/A   Clear
7:55 AM 69.3 °F - 67.1 °F 93% 29.64 in 4.0 mi South 8.1 mph - N/A   Clear
8:15 AM 71.1 °F - 67.8 °F 89% 29.65 in 5.0 mi South 11.5 mph - N/A   Clear
8:35 AM 72.5 °F - 68.0 °F 86% 29.65 in 7.0 mi SSE 11.5 mph 20.7 mph N/A   Clear
8:55 AM 75.2 °F - 68.2 °F 79% 29.67 in 10.0 mi South 18.4 mph 23.0 mph N/A   Clear
9:15 AM 75.6 °F - 68.0 °F 77% 29.67 in 10.0 mi South 21.9 mph - N/A   Clear
9:35 AM 76.5 °F - 68.0 °F 75% 29.67 in 10.0 mi South 24.2 mph 27.6 mph N/A   Clear
10:15 AM 80.1 °F 82.6 °F 67.6 °F 66% 29.67 in 10.0 mi SSW 24.2 mph 28.8 mph N/A   Clear
10:35 AM 80.8 °F 83.3 °F 67.5 °F 64% 29.71 in 10.0 mi WSW 16.1 mph 21.9 mph N/A   Mostly Cloudy
10:55 AM 79.9 °F - 67.3 °F 65% 29.72 in 10.0 mi West 16.1 mph - N/A   Overcast
11:15 AM 79.0 °F - 66.9 °F 66% 29.72 in 10.0 mi WNW 16.1 mph - N/A   Mostly Cloudy
11:35 AM 80.1 °F 81.9 °F 65.1 °F 60% 29.72 in 10.0 mi WNW 12.7 mph - N/A   Mostly Cloudy
11:55 AM 79.7 °F - 66.4 °F 64% 29.73 in 10.0 mi NW 11.5 mph 17.3 mph N/A   Mostly Cloudy
12:15 PM 79.3 °F - 66.0 °F 64% 29.72 in 10.0 mi WNW 10.4 mph - N/A   Overcast
12:35 PM 80.1 °F 81.9 °F 65.1 °F 60% 29.71 in 10.0 mi WNW 9.2 mph - N/A   Scattered Clouds
12:55 PM 80.6 °F 82.2 °F 63.9 °F 57% 29.71 in 10.0 mi NW 6.9 mph - N/A   Mostly Cloudy
1:15 PM 80.6 °F 82.0 °F 63.5 °F 56% 29.71 in 10.0 mi North 9.2 mph - N/A   Scattered Clouds
1:35 PM 80.8 °F 82.1 °F 63.1 °F 55% 29.70 in 10.0 mi NNW 5.8 mph - N/A   Scattered Clouds
1:55 PM 81.3 °F 82.5 °F 62.8 °F 53% 29.69 in 10.0 mi North 8.1 mph - N/A   Scattered Clouds
2:15 PM 81.7 °F 82.9 °F 63.0 °F 53% 29.69 in 10.0 mi North 10.4 mph - N/A   Scattered Clouds
2:35 PM 82.8 °F 83.6 °F 62.4 °F 50% 29.68 in 10.0 mi North 11.5 mph - N/A   Scattered Clouds
2:55 PM 83.3 °F 84.1 °F 62.2 °F 49% 29.68 in 10.0 mi NNW 13.8 mph 18.4 mph N/A   Scattered Clouds
3:15 PM 83.3 °F 83.7 °F 61.3 °F 47% 29.68 in 10.0 mi North 16.1 mph 23.0 mph N/A   Scattered Clouds
3:35 PM 81.5 °F 81.1 °F 55.9 °F 41% 29.68 in 10.0 mi North 21.9 mph 25.3 mph N/A   Clear
3:55 PM 80.4 °F 80.4 °F 55.2 °F 42% 29.69 in 10.0 mi North 19.6 mph 23.0 mph N/A   Clear
4:15 PM 79.5 °F - 54.1 °F 41% 29.70 in 10.0 mi North 19.6 mph - N/A   Clear
4:35 PM 78.6 °F - 53.6 °F 42% 29.70 in 10.0 mi North 19.6 mph 25.3 mph N/A   Clear
4:55 PM 78.6 °F - 52.3 °F 40% 29.71 in 10.0 mi North 18.4 mph 23.0 mph N/A   Clear
5:15 PM 77.9 °F - 50.9 °F 39% 29.72 in 10.0 mi North 18.4 mph 24.2 mph N/A   Clear
5:35 PM 77.4 °F - 47.8 °F 35% 29.73 in 10.0 mi North 15.0 mph - N/A   Clear
5:55 PM 76.5 °F - 45.3 °F 33% 29.74 in 10.0 mi North 12.7 mph - N/A   Clear
6:15 PM 75.2 °F - 43.9 °F 33% 29.75 in 10.0 mi North 9.2 mph - N/A   Clear
6:35 PM 74.3 °F - 44.2 °F 34% 29.76 in 10.0 mi NNE 6.9 mph - N/A   Clear
6:55 PM 72.7 °F - 45.9 °F 38% 29.76 in 10.0 mi NNE 5.8 mph - N/A   Clear
7:15 PM 72.5 °F - 47.3 °F 41% 29.77 in 10.0 mi NE 4.6 mph - N/A   Clear
7:35 PM 72.1 °F - 47.8 °F 42% 29.77 in 10.0 mi NE 8.1 mph - N/A   Clear
7:55 PM 71.6 °F - 48.2 °F 43% 29.78 in 10.0 mi NE 8.1 mph - N/A   Clear
8:15 PM 70.2 °F - 48.7 °F 46% 29.79 in 10.0 mi ENE 6.9 mph - N/A   Clear
8:35 PM 69.8 °F - 49.1 °F 48% 29.80 in 10.0 mi East 8.1 mph - N/A   Clear
8:55 PM 70.0 °F - 48.2 °F 46% 29.80 in 10.0 mi ENE 9.2 mph - N/A   Clear
9:15 PM 68.0 °F - 47.5 °F 48% 29.81 in 10.0 mi East 9.2 mph - N/A   Clear
9:35 PM 67.3 °F - 48.4 °F 51% 29.81 in 10.0 mi East 9.2 mph - N/A   Clear
9:55 PM 68.4 °F - 48.2 °F 48% 29.81 in 10.0 mi East 10.4 mph - N/A   Clear
10:15 PM 67.6 °F - 48.4 °F 50% 29.81 in 10.0 mi ENE 9.2 mph - N/A   Clear
10:35 PM 69.1 °F - 48.4 °F 48% 29.81 in 10.0 mi ENE 8.1 mph - N/A   Clear
10:55 PM 68.0 °F - 49.1 °F 51% 29.82 in 10.0 mi ENE 5.8 mph - N/A   Clear
11:15 PM 66.6 °F - 50.0 °F 55% 29.82 in 10.0 mi ENE 8.1 mph - N/A   Clear
11:35 PM 67.6 °F - 50.0 °F 53% 29.82 in 10.0 mi ENE 8.1 mph - N/A   Clear
11:55 PM 66.6 °F - 50.2 °F 56% 29.82 in 10.0 mi ENE 5.8 mph - N/A   Clear